Погода в Йичине

Чехия     50°26′17″N   15°21′22″E
В апреле 2022 года жителям России запретили посещать сайт meteo.paraplan.net по решению Генеральной прокуратуры. Аудитория сайта уменьшилась в 10 раз. Владельцы сайта не видят смысла в поддержке погодного сервера в таких условиях. Сайт будет закрыт в октябре.
темп.,
°C
ветер,
м/с
пор.,
м/с
влажн.,
%
обл.,
%
осадки,
мм/ч
давл.,
гПа
погр.,
м
25 сентября, вс
вс2523:00+9всв116882 0.0 101411
02:00+9всв117295 0.0 101411
05:00+10в1170100 0.0 101430
08:00+10вюв1273100 0.0 101453
11:00+13вюв1268100 0.0 1014282
14:00+17ююв225853 0.0 1012996
17:00+16юв3364100 0.2 1010923
20:00+11всв229593 2.3 101136
26 сентября, пн
пн2623:00+11в239649 2.5 101085
02:00+9св009682 2.8 101011
05:00+10з129686 0.2 100945
08:00+10зсз2393100 0.3 1009113
11:00+12зюз2382100 0.1 1009358
14:00+14ююз236776 0.1 1007721
17:00+15ююз245714 0.0 10051318
20:00+10вюв227796 0.0 100514
27 сентября, вт
вт2723:00+10в22818 0.1 100427
02:00+8в22925 0.1 100313
05:00+7вюв119782 0.0 100212
08:00+9юв1192100 0.0 100165
11:00+9ю2589100 0.4 1002411
14:00+12зюз4772100 1.1 10011080
17:00+10з5980100 0.8 1001768
20:00+8зюз128953 1.0 100368
28 сентября, ср
ср2823:00+7зюз3896100 0.6 1004360
02:00+7юз379081 1.4 1003397
05:00+5ююв249491 0.0 1003176
08:00+6ю3892100 0.1 1002457
11:00+8ю3886100 0.1 1001631
14:00+11юз5970100 0.6 9991764
17:00+10юз4977100 0.8 9991174
20:00+8юз299178 2.0 1001342
29 сентября, чт
чт2923:00+6юз129654 0.1 100339
02:00+5в009768 0.1 100410
05:00+6вюв1198100 0.0 100443
08:00+6юв1295100 0.0 1005134
11:00+10ююв2381100 0.0 1005605
14:00+12юз1265100 0.1 10051022
17:00+13ююз1162100 0.0 1005909
20:00+9св117599 0.0 100711